TimeMST,TemperatureF,Dew PointF,Humidity,Sea Level PressureIn,VisibilityMPH,Wind Direction,Wind SpeedMPH,Gust SpeedMPH,PrecipitationIn,Events,Conditions,WindDirDegrees,DateUTC
12:15 AM,13.5,8.4,80,29.96,10.0,North,4.6,-,N/A,,Clear,360,2013-01-08 07:15:00
12:35 AM,12.7,8.2,82,29.96,10.0,North,8.1,-,N/A,,Clear,350,2013-01-08 07:35:00
12:55 AM,13.1,8.6,82,29.96,10.0,NE,4.6,-,N/A,,Clear,50,2013-01-08 07:55:00
1:15 AM,13.3,9.3,84,29.97,10.0,NE,5.8,-,N/A,,Clear,40,2013-01-08 08:15:00
1:35 AM,13.3,9.5,85,29.97,10.0,NNE,4.6,-,N/A,,Clear,20,2013-01-08 08:35:00
1:55 AM,11.3,7.7,85,29.97,10.0,North,3.5,-,N/A,,Clear,10,2013-01-08 08:55:00
2:15 AM,10.4,7.2,87,29.97,10.0,North,3.5,-,N/A,,Clear,350,2013-01-08 09:15:00
2:35 AM,10.4,6.8,85,29.97,10.0,NNE,8.1,-,N/A,,Clear,30,2013-01-08 09:35:00
2:55 AM,12.7,8.4,83,29.97,10.0,ENE,5.8,-,N/A,,Clear,60,2013-01-08 09:55:00
3:15 AM,14.2,7.9,76,29.96,10.0,NE,4.6,-,N/A,,Clear,50,2013-01-08 10:15:00
3:35 AM,11.5,6.8,81,29.95,10.0,Calm,Calm,-,N/A,,Clear,0,2013-01-08 10:35:00
3:55 AM,12.7,6.4,76,29.94,10.0,NNE,5.8,-,N/A,,Clear,20,2013-01-08 10:55:00
4:15 AM,9.3,4.3,80,29.94,10.0,NE,5.8,-,N/A,,Clear,50,2013-01-08 11:15:00
4:35 AM,10.0,5.2,81,29.93,10.0,NNE,6.9,-,N/A,,Clear,20,2013-01-08 11:35:00
4:55 AM,10.8,6.4,83,29.94,10.0,North,6.9,-,N/A,,Clear,10,2013-01-08 11:55:00
5:15 AM,15.1,8.8,76,29.94,10.0,North,8.1,-,N/A,,Clear,10,2013-01-08 12:15:00
5:35 AM,14.9,8.6,76,29.96,10.0,NNE,5.8,-,N/A,,Clear,30,2013-01-08 12:35:00
5:55 AM,12.6,7.2,79,29.96,10.0,North,8.1,-,N/A,,Clear,10,2013-01-08 12:55:00
6:15 AM,13.8,8.2,78,29.96,10.0,North,5.8,-,N/A,,Clear,10,2013-01-08 13:15:00
6:35 AM,13.3,7.7,78,29.96,10.0,NNE,8.1,-,N/A,,Clear,30,2013-01-08 13:35:00
7:15 AM,13.5,6.8,75,29.97,10.0,NE,6.9,-,N/A,,Clear,40,2013-01-08 14:15:00
7:35 AM,14.5,7.7,74,29.98,10.0,North,5.8,-,N/A,,Clear,360,2013-01-08 14:35:00
7:55 AM,15.6,8.6,74,29.99,10.0,NNE,5.8,-,N/A,,Clear,30,2013-01-08 14:55:00
8:15 AM,18.3,10.0,70,29.99,10.0,NNE,9.2,-,N/A,,Clear,20,2013-01-08 15:15:00
8:35 AM,21.9,11.1,63,30.00,10.0,NE,5.8,-,N/A,,Clear,50,2013-01-08 15:35:00
8:55 AM,24.8,10.8,55,30.00,10.0,NNE,5.8,-,N/A,,Clear,20,2013-01-08 15:55:00
9:15 AM,29.7,11.8,48,30.02,10.0,North,12.7,-,N/A,,Clear,350,2013-01-08 16:15:00
9:35 AM,32.5,10.9,41,30.02,10.0,NNW,18.4,-,N/A,,Clear,340,2013-01-08 16:35:00
9:55 AM,37.6,11.1,34,30.02,10.0,North,16.1,23.0,N/A,,Clear,350,2013-01-08 16:55:00
10:15 AM,40.6,9.7,28,30.02,10.0,NNW,20.7,-,N/A,,Clear,340,2013-01-08 17:15:00
10:55 AM,44.6,7.5,22,29.99,10.0,NNW,21.9,-,N/A,,Clear,340,2013-01-08 17:55:00
11:15 AM,46.4,7.5,21,29.99,10.0,North,16.1,-,N/A,,Clear,350,2013-01-08 18:15:00
11:35 AM,48.4,6.8,18,29.98,10.0,NNW,17.3,-,N/A,,Clear,340,2013-01-08 18:35:00
11:55 AM,50.2,6.1,17,29.96,10.0,NNW,12.7,-,N/A,,Clear,340,2013-01-08 18:55:00
12:15 PM,51.6,5.7,16,29.96,10.0,NNW,10.4,-,N/A,,Clear,330,2013-01-08 19:15:00
12:55 PM,54.5,3.0,12,29.96,10.0,NNW,13.8,18.4,N/A,,Clear,330,2013-01-08 19:55:00
1:15 PM,51.6,6.8,16,29.96,10.0,North,16.1,21.9,N/A,,Clear,360,2013-01-08 20:15:00
1:35 PM,50.4,5.2,16,29.96,10.0,North,15.0,-,N/A,,Clear,360,2013-01-08 20:35:00
1:55 PM,49.5,4.8,16,29.97,10.0,North,16.1,20.7,N/A,,Clear,360,2013-01-08 20:55:00
2:15 PM,50.2,5.4,16,29.98,10.0,North,15.0,-,N/A,,Clear,360,2013-01-08 21:15:00
2:35 PM,52.2,5.0,15,29.98,10.0,NNW,13.8,-,N/A,,Clear,330,2013-01-08 21:35:00
2:55 PM,51.3,3.4,14,29.99,10.0,NW,15.0,-,N/A,,Clear,310,2013-01-08 21:55:00
3:15 PM,51.1,2.5,14,30.00,10.0,NNW,13.8,-,N/A,,Clear,340,2013-01-08 22:15:00
3:35 PM,50.9,3.9,15,30.01,10.0,NNW,12.7,-,N/A,,Clear,340,2013-01-08 22:35:00
3:55 PM,49.6,3.0,15,30.02,10.0,North,13.8,20.7,N/A,,Clear,350,2013-01-08 22:55:00
4:15 PM,48.6,3.9,16,30.02,10.0,North,12.7,-,N/A,,Clear,350,2013-01-08 23:15:00
4:35 PM,46.8,5.0,18,30.04,10.0,North,8.1,-,N/A,,Clear,350,2013-01-08 23:35:00
4:55 PM,41.9,4.8,22,30.04,10.0,North,6.9,-,N/A,,Clear,10,2013-01-08 23:55:00
5:15 PM,36.3,4.5,26,30.05,10.0,North,8.1,-,N/A,,Clear,350,2013-01-09 00:15:00
5:35 PM,32.2,3.7,30,30.07,10.0,North,5.8,-,N/A,,Clear,350,2013-01-09 00:35:00
5:55 PM,31.8,5.0,32,30.08,10.0,NNE,10.4,-,N/A,,Clear,30,2013-01-09 00:55:00
6:15 PM,30.6,4.1,33,30.09,10.0,North,4.6,-,N/A,,Clear,360,2013-01-09 01:15:00
6:35 PM,29.5,4.3,34,30.10,10.0,North,3.5,-,N/A,,Clear,10,2013-01-09 01:35:00
6:55 PM,27.1,3.9,37,30.11,10.0,NNW,3.5,-,N/A,,Clear,330,2013-01-09 01:55:00
7:15 PM,29.7,5.0,35,30.12,10.0,NNW,4.6,-,N/A,,Clear,340,2013-01-09 02:15:00
7:35 PM,26.8,5.2,40,30.12,10.0,North,9.2,-,N/A,,Clear,360,2013-01-09 02:35:00
7:55 PM,25.5,6.4,44,30.14,10.0,NNW,9.2,-,N/A,,Clear,340,2013-01-09 02:55:00
8:15 PM,26.1,7.7,46,30.15,10.0,North,5.8,-,N/A,,Clear,350,2013-01-09 03:15:00
8:35 PM,26.4,7.7,45,30.17,10.0,North,5.8,-,N/A,,Clear,350,2013-01-09 03:35:00
8:55 PM,25.3,7.5,47,30.18,10.0,North,6.9,-,N/A,,Clear,350,2013-01-09 03:55:00
9:15 PM,22.6,6.8,51,30.19,10.0,NNW,5.8,-,N/A,,Clear,340,2013-01-09 04:15:00
9:35 PM,23.2,7.7,52,30.20,10.0,NNW,6.9,-,N/A,,Clear,340,2013-01-09 04:35:00
10:55 PM,20.3,6.8,56,30.24,10.0,Calm,Calm,-,N/A,,Clear,0,2013-01-09 05:55:00
11:15 PM,21.2,7.9,57,30.25,10.0,Calm,Calm,-,N/A,,Clear,0,2013-01-09 06:15:00
11:35 PM,15.6,4.6,62,30.25,10.0,NNW,4.6,-,N/A,,Clear,340,2013-01-09 06:35:00
11:55 PM,16.0,5.0,62,30.26,10.0,North,3.5,-,N/A,,Clear,350,2013-01-09 06:55:00